Stations météo

réclame
Mon MeteoGroup
Figari, France (7780): Température de l'air & dewpoint: 12.01.2020 02:00:00 - 18.01.2020 02:00:00 (CET)Figari, France (7780): Température de l'air 5cm: 12.01.2020 02:00:00 - 18.01.2020 02:00:00 (CET)Figari, France (7780): Vitesse du vent & gusts: 12.01.2020 02:00:00 - 18.01.2020 02:00:00 (CET)Figari, France (7780): Direction du vent: 12.01.2020 02:00:00 - 18.01.2020 02:00:00 (CET)Figari, France (7780): reduced air pressure: 12.01.2020 02:00:00 - 18.01.2020 02:00:00 (CET)Figari, France (7780): visibility: 12.01.2020 02:00:00 - 18.01.2020 02:00:00 (CET)Figari, France (7780): Quantités de précipitations: 12.01.2020 02:00:00 - 18.01.2020 02:00:00 (CET)
Date & Time tt [°C] td [°C] tt 5cm [°C] ff [km/h] ff [knt] fx [km/h] fx [knt] dd ppp [hPa] vv [km] rr [mm]
18.01.2020 02:00:00 11,7 7,2 8,6 39 21 62 34 W 1022,8 20 0,0
18.01.2020 01:00:00 11,6 7,7 8,8 37 20 57 31 W 1023,5 40 0,0
18.01.2020 00:00:00 12,1 8,8 9,6 27 15 49 26 W 1023,8 34 0,2
17.01.2020 23:00:00 12,0 10,1 10,7 16 8 48 26 WSW 1024,1 30 1,4
17.01.2020 22:00:00 13,4 11,1 11,4 28 15 47 25 SW 1024,8 19 0,0
17.01.2020 21:00:00 13,6 11,1 11,3 30 16 45 24 SW 1025,5 32 0,0
17.01.2020 20:00:00 12,9 11,0 10,4 20 11 31 17 SW 1025,8 27 0,0
17.01.2020 19:00:00 12,1 9,5 9,3 7 4 13 7 SSW 1026,2 19 0,0
17.01.2020 18:00:00 12,0 8,8 8,9 10 6 21 11 WSW 1026,3 32 0,0
17.01.2020 17:00:00 13,2 9,1 10,4 14 8 29 15 WSW 1026,3 32 0,0
17.01.2020 16:00:00 15,2 7,5 13,3 20 11 35 19 WSW 1026,3 37 0,0
17.01.2020 15:00:00 15,9 7,6 13,5 24 13 40 21 WSW 1026,5 23 0,0
17.01.2020 14:00:00 13,7 8,7 12,6 19 10 33 18 SW 1026,7 46 0,0
17.01.2020 13:00:00 13,7 8,5 13,3 21 12 33 18 SW 1027,3 43 0,0
17.01.2020 12:00:00 14,1 9,3 13,1 15 8 25 13 W 1027,7 36 0,0
17.01.2020 11:00:00 13,5 8,5 12,0 15 8 26 14 WSW 1028,6 22 0,0
17.01.2020 10:00:00 12,7 9,3 10,5 13 7 19 11 WSW 1028,5 18 0,0
17.01.2020 09:00:00 11,4 9,0 8,7 11 6 14 8 SW 1028,4 32 0,0
17.01.2020 08:00:00 10,3 8,2 8,5 7 4 14 8 SW 1028,1 36 0,0
17.01.2020 07:00:00 10,9 7,9 7,8 11 6 20 11 WSW 1028,1 39 0,0
17.01.2020 06:00:00 10,4 7,6 7,0 10 6 14 8 WSW 1027,9 41 0,0
17.01.2020 05:00:00 8,4 7,0 7,1 8 4 12 6 SW 1028,1 44 0,0
17.01.2020 04:00:00 7,4 6,7 6,7 2 1 4 2 S 1028,5 30 0,0
17.01.2020 03:00:00 7,5 6,6 6,9 0 0 4 2 N 1028,8 24 0,0
17.01.2020 02:00:00 7,9 7,1 6,9 3 2 7 4 NNE 1028,8 25 0,0
17.01.2020 01:00:00 7,9 7,0 6,9 0 0 4 2 N 1029,1 23 0,0
17.01.2020 00:00:00 8,2 7,3 7,6 0 0 3 2 N 1029,4 27 0,0
16.01.2020 23:00:00 8,4 7,3 7,7 3 2 5 3 N 1029,7 30 0,0
16.01.2020 22:00:00 8,5 7,3 7,7 2 1 4 2 ENE 1029,9 27 0,0
16.01.2020 21:00:00 8,9 7,5 7,7 0 0 3 2 N 1029,9 24 0,0
16.01.2020 20:00:00 9,6 7,7 8,2 0 0 7 4 N 1029,9 27 0,0
16.01.2020 19:00:00 10,9 8,6 8,7 5 3 10 5 NE 1029,9 36 0,0
16.01.2020 18:00:00 11,6 8,6 9,5 6 3 11 6 NE 1029,7 34 0,0
16.01.2020 17:00:00 12,6 8,7 11,3 6 3 9 5 NE 1029,3 39 0,0
16.01.2020 16:00:00 13,7 8,3 13,3 4 2 11 6 S 1029,3 43 0,0
16.01.2020 15:00:00 13,9 8,1 14,0 7 4 16 9 S 1029,5 45 0,0
16.01.2020 14:00:00 14,3 7,6 15,1 10 5 17 9 SW 1029,9 53 0,0
16.01.2020 13:00:00 15,1 6,9 16,4 5 3 11 6 WSW 1030,4 49 0,0
16.01.2020 12:00:00 15,0 6,3 14,9 4 2 9 5 W 1031,0 57 0,0
16.01.2020 11:00:00 12,2 9,0 10,6 2 1 5 3 SSW 1031,4 40 0,0
16.01.2020 10:00:00 8,5 8,1 5,9 3 1 6 3 S 1031,6 19 0,0
16.01.2020 09:00:00 5,2 5,1 -0,1 3 2 5 3 NE 1031,2 20 0,0
16.01.2020 08:00:00 0,4 0,0 -0,8 0 0 8 4 N 1030,9 19 0,0
16.01.2020 07:00:00 1,1 0,7 -0,4 5 3 9 5 NNE 1030,4 20 0,0
16.01.2020 06:00:00 0,7 0,3 -1,0 5 3 10 5 NNE 1030,1 24 0,0
16.01.2020 05:00:00 1,0 0,6 -1,5 6 3 11 6 NNE 1030,0 38 0,0
16.01.2020 04:00:00 1,3 1,0 -2,4 9 5 15 8 NE 1030,0 22 0,0
16.01.2020 03:00:00 -1,0 -1,6 -2,1 5 3 11 6 NNE 1030,2 32 0,0
16.01.2020 02:00:00 -0,3 -0,7 -2,4 5 3 11 6 NE 1030,2 20 0,0
16.01.2020 01:00:00 0,0 -0,4 -2,3 3 1 10 5 NNE 1030,1 27 0,0
16.01.2020 00:00:00 -0,5 -1,1 -2,3 3 2 10 5 SSW 1030,1 36 0,0
15.01.2020 23:00:00 0,1 -0,6 -2,1 4 2 8 4 NE 1030,0 27 0,0
15.01.2020 22:00:00 0,9 0,2 -1,7 4 2 8 4 NNE 1029,8 32 0,0
15.01.2020 21:00:00 1,5 0,8 -1,0 6 3 8 5 ENE 1029,9 38 0,0
15.01.2020 20:00:00 2,4 1,4 -0,7 6 4 8 4 NNE 1029,9 43 0,0
15.01.2020 19:00:00 4,2 2,9 -0,1 4 2 8 5 NNE 1029,8 49 0,0
15.01.2020 18:00:00 6,7 4,5 2,1 5 3 8 4 N 1029,4 60 0,0
15.01.2020 17:00:00 12,6 5,5 7,1 5 3 11 6 ESE 1028,7 60 0,0
15.01.2020 16:00:00 14,7 5,2 11,6 6 3 20 11 ESE 1028,5 57 0,0
15.01.2020 15:00:00 15,3 5,8 14,6 8 4 23 13 ESE 1028,3 49 0,0
15.01.2020 14:00:00 15,1 6,1 16,3 11 6 24 13 SSE 1028,4 53 0,0
15.01.2020 13:00:00 15,1 7,4 13,0 10 5 22 12 E 1028,6 49 0,0
15.01.2020 12:00:00 14,7 7,5 12,7 8 5 24 13 E 1029,3 49 0,0
15.01.2020 11:00:00 13,2 7,8 10,9 9 5 18 10 ENE 1029,7 18 0,0
15.01.2020 10:00:00 11,8 8,8 0,3 7 4 13 7 E 1029,3 50 0,0
15.01.2020 09:00:00 3,7 3,7 -2,7 5 3 9 5 ENE 1028,9 13 0,0
15.01.2020 08:00:00 -1,8 -2,4 -3,2 4 2 10 5 NE 1028,8 34 0,0
15.01.2020 07:00:00 -1,2 -1,6 -3,2 7 4 10 5 NE 1028,6 33 0,0
15.01.2020 06:00:00 -1,1 -1,5 -3,1 5 3 7 4 ENE 1028,4 22 0,0
15.01.2020 05:00:00 -1,2 -1,8 -2,9 4 2 8 5 ENE 1028,2 21 0,0
15.01.2020 04:00:00 -0,6 -1,0 -2,8 5 3 8 4 ENE 1028,3 25 0,0
15.01.2020 03:00:00 -0,8 -1,4 -2,4 3 2 6 4 NE 1028,5 26 0,0
15.01.2020 02:00:00 -0,4 -1,0 -2,3 4 2 10 5 ENE 1028,4 30 0,0
15.01.2020 01:00:00 -0,2 -0,8 -1,8 5 3 11 6 NNE 1028,4 27 0,0
15.01.2020 00:00:00 0,4 -0,2 -1,8 5 3 9 5 NNE 1028,5 33 0,0
14.01.2020 23:00:00 0,2 -0,7 -1,4 3 1 8 4 N 1028,3 32 0,0
14.01.2020 22:00:00 1,6 0,9 -0,9 4 2 8 5 NNE 1028,1 45 0,0
14.01.2020 21:00:00 2,5 1,5 -0,4 5 3 8 4 NE 1028,0 52 0,0
14.01.2020 20:00:00 4,2 3,2 0,4 4 2 8 5 NE 1028,0 51 0,0
14.01.2020 19:00:00 6,1 4,4 1,2 6 3 10 6 NNE 1027,7 57 0,0
14.01.2020 18:00:00 7,9 4,5 3,4 4 2 18 10 W 1027,0 60 0,0
14.01.2020 17:00:00 12,7 6,5 8,7 12 6 23 12 WSW 1026,6 60 0,0
14.01.2020 16:00:00 14,4 7,9 12,7 15 8 28 15 SW 1026,2 50 0,0
14.01.2020 15:00:00 14,7 7,7 15,0 18 10 34 18 SW 1025,9 41 0,0
14.01.2020 14:00:00 15,2 8,7 16,7 22 12 35 19 WSW 1025,6 37 0,0
14.01.2020 13:00:00 14,6 8,8 16,3 21 12 31 17 SW 1025,9 59 0,0
14.01.2020 12:00:00 14,7 8,6 15,4 16 9 27 15 SW 1026,5 46 0,0
14.01.2020 11:00:00 14,4 8,1 11,3 9 5 19 10 SW 1027,2 46 0,0
14.01.2020 10:00:00 8,8 7,1 0,9 0 0 5 3 N 1026,9 47 0,0
14.01.2020 09:00:00 2,8 2,7 -2,0 3 1 7 4 ESE 1026,5 35 0,0
14.01.2020 08:00:00 -1,0 -1,4 -2,5 5 3 8 5 NNE 1025,9 16 0,0
14.01.2020 07:00:00 -1,1 -1,5 -2,8 4 2 6 4 NE 1025,8 26 0,0
14.01.2020 06:00:00 -1,5 -2,1 -2,8 3 2 7 4 SSE 1025,5 29 0,0
14.01.2020 05:00:00 -0,4 -1,0 -2,1 5 3 10 5 NNE 1025,3 14 0,0
14.01.2020 04:00:00 -0,3 -0,9 -1,9 5 3 8 4 NNE 1025,3 18 0,0
14.01.2020 03:00:00 0,5 -0,1 -0,7 3 1 8 4 NNE 1025,6 17 0,0
14.01.2020 02:00:00 1,1 0,5 -0,2 4 2 6 3 ESE 1025,4 29 0,0
14.01.2020 01:00:00 2,1 1,7 -0,7 3 2 10 5 NE 1025,2 25 0,0
14.01.2020 00:00:00 0,8 -0,1 -0,7 3 1 7 4 NNE 1025,5 26 0,0
13.01.2020 23:00:00 1,4 0,7 -0,6 0 0 9 5 N 1025,7 32 0,0
13.01.2020 22:00:00 1,5 0,6 -0,6 5 3 8 4 ENE 1025,6 32 0,0
13.01.2020 21:00:00 1,8 0,8 -0,3 6 3 7 4 NE 1025,6 23 0,0
13.01.2020 20:00:00 2,8 1,5 -0,2 4 2 5 3 NE 1025,6 23 0,0
13.01.2020 19:00:00 4,5 2,8 0,8 4 2 10 5 NE 1025,3 34 0,0
13.01.2020 18:00:00 7,2 4,2 2,6 5 3 8 4 ENE 1025,2 39 0,0
13.01.2020 17:00:00 12,9 6,2 9,2 8 5 14 8 WSW 1024,6 54 0,0
13.01.2020 16:00:00 14,3 6,1 11,7 10 6 19 10 SW 1024,6 54 0,0
13.01.2020 15:00:00 14,6 5,1 12,7 13 7 21 11 SW 1024,5 55 0,0
13.01.2020 14:00:00 15,2 5,1 16,3 10 5 23 12 S 1024,6 51 0,0
13.01.2020 13:00:00 15,3 4,0 16,5 7 4 15 8 SSW 1025,4 59 0,0
13.01.2020 12:00:00 14,9 4,0 13,9 7 4 20 11 E 1026,2 47 0,0
13.01.2020 11:00:00 13,9 3,6 10,8 10 6 21 12 ENE 1026,6 54 0,0
13.01.2020 10:00:00 9,6 7,7 0,1 3 1 9 5 SW 1026,6 48 0,0
13.01.2020 09:00:00 3,1 3,0 -2,7 4 2 8 4 ENE 1026,3 20 0,0
13.01.2020 08:00:00 -0,7 -1,0 -3,1 8 4 10 5 NE 1026,2 20 0,0
13.01.2020 07:00:00 -0,5 -0,9 -2,8 9 5 10 5 NE 1026,1 15 0,0
13.01.2020 06:00:00 -1,0 -1,4 -2,2 3 2 11 6 NNE 1025,8 22 0,0
13.01.2020 05:00:00 -0,8 -1,2 -2,2 7 4 11 6 NNE 1025,8 21 0,0
13.01.2020 04:00:00 -0,5 -0,9 -2,1 5 3 8 4 ENE 1025,9 16 0,0
13.01.2020 03:00:00 -0,8 -1,4 -2,0 4 2 9 5 E 1026,2 19 0,0
13.01.2020 02:00:00 -0,3 -0,9 -2,0 5 3 8 4 NNE 1026,3 16 0,0
13.01.2020 01:00:00 0,9 0,5 -1,4 5 3 9 5 NE 1026,6 17 0,0
13.01.2020 00:00:00 0,9 0,3 -1,3 4 2 8 4 NNE 1026,7 18 0,0
12.01.2020 23:00:00 1,7 1,0 -0,8 5 3 9 5 NE 1027,2 18 0,0
12.01.2020 22:00:00 2,4 1,7 -0,3 4 2 10 5 NE 1026,9 20 0,0
12.01.2020 21:00:00 3,1 2,2 -0,3 4 2 6 3 NNE 1026,7 23 0,0
12.01.2020 20:00:00 4,4 2,9 0,4 5 3 6 3 N 1026,9 34 0,0
12.01.2020 19:00:00 7,6 5,6 2,4 3 1 14 8 NNW 1026,8 34 0,0
12.01.2020 18:00:00 9,8 6,5 5,7 8 4 17 9 NNE 1026,3 46 0,0
12.01.2020 17:00:00 12,9 8,2 9,7 14 8 22 12 SW 1026,0 53 0,0
12.01.2020 16:00:00 14,8 7,1 12,8 16 9 23 12 WSW 1025,9 50 0,0
12.01.2020 15:00:00 14,9 5,9 13,8 3 2 17 9 NE 1025,9 49 0,0
12.01.2020 14:00:00 15,4 6,1 16,3 6 4 22 12 E 1026,1 57 0,0
12.01.2020 13:00:00 15,4 5,3 15,9 12 6 35 19 E 1026,6 50 0,0
12.01.2020 12:00:00 15,0 6,5 14,7 21 11 40 22 ENE 1027,4 51 0,0
12.01.2020 11:00:00 14,3 5,6 11,2 21 11 44 24 ENE 1027,7 57 0,0
12.01.2020 10:00:00 12,5 6,7 5,9 14 8 28 15 NE 1027,2 45 0,0
12.01.2020 09:00:00 8,2 5,7 0,2 16 9 26 14 NE 1027,2 42 0,0
12.01.2020 08:00:00 3,0 2,3 -0,7 10 5 16 8 NNE 1026,9 46 0,0
12.01.2020 07:00:00 1,4 0,7 -0,7 9 5 15 8 NE 1026,4 47 0,0
12.01.2020 06:00:00 3,4 2,7 -0,6 5 3 12 7 NNE 1026,4 57 0,0
12.01.2020 05:00:00 3,6 2,3 0,0 6 4 13 7 N 1026,0 54 0,0
12.01.2020 04:00:00 5,9 3,2 0,3 10 5 32 18 NE 1026,1 50 0,0
12.01.2020 03:00:00 4,8 4,5 0,0 11 6 26 14 NE 1026,1 59 0,0
12.01.2020 02:00:00 2,8 2,1 0,3 5 3 13 7 N 1025,7 39 0,0

tt = Température de l'air
td = dewpoint
tt 5cm = Température de l'air 5cm
ff = Vitesse du vent
fx = gusts
dd = Direction du vent
ppp = reduced air pressure
vv = visibility
rr = Quantités de précipitations

stations d'obs. à proximité